Terug naar catalogus

CZ-6A DEB

ActiefSSO
NORAD 54439·DEBRIS·🇨🇳 China

Gelanceerd Nov 11, 2022 vanaf Taiyuan Satellite Launch Center

Loading…

Volgende Passages (komende 24 uur)

TLE

VersSource: Space-Track

Epoch: Sep 14, 2026, 07:19 UTC

1 54439U 22151FP  26257.30555526 -.00000170  00000-0 -11062-3 0  9992
2 54439  99.0376 202.6490 0201554 302.9677  55.2239 13.77040634192648

Volg CZ-6A DEB in realtime met AllMySat

Download on the App Store